Hourly Weather Abaete

Today, 5 December, Saturday

Time Temperature Precipitation Wind Pressure Humidity
00:00 +25°C° 0.2 mm 1 mps 706 mmHg 79%
01:00 +25°C° 0.1 mm 1 mps 706 mmHg 81%
02:00 +24°C° 0.1 mm 1 mps 706 mmHg 82%
03:00 +24°C° 0.1 mm 1 mps 706 mmHg 83%
04:00 +24°C° 0 mm 1 mps 706 mmHg 84%
05:00 +24°C° 0 mm 1 mps 706 mmHg 85%
06:00 +24°C° 0 mm 2 mps 707 mmHg 86%
07:00 +25°C° 0 mm 2 mps 707 mmHg 80%
08:00 +27°C° 0 mm 2 mps 708 mmHg 74%
09:00 +29°C° 0 mm 2 mps 708 mmHg 67%
10:00 +30°C° 0 mm 2 mps 708 mmHg 62%
11:00 +31°C° 0 mm 2 mps 708 mmHg 57%
12:00 +34°C° 0 mm 3 mps 708 mmHg 52%
13:00 +32°C° 0.7 mm 2 mps 707 mmHg 54%
14:00 +32°C° 0.7 mm 2 mps 707 mmHg 56%
15:00 +32°C° 0.7 mm 2 mps 706 mmHg 58%
16:00 +31°C° 0.6 mm 2 mps 706 mmHg 63%
17:00 +30°C° 0.6 mm 1 mps 705 mmHg 68%
18:00 +29°C° 0.6 mm 1 mps 705 mmHg 73%
19:00 +28°C° 0.3 mm 1 mps 706 mmHg 75%
20:00 +27°C° 0.3 mm 2 mps 706 mmHg 77%
21:00 +26°C° 0.3 mm 2 mps 706 mmHg 79%
22:00 +25°C° 0.4 mm 2 mps 706 mmHg 81%
23:00 +25°C° 0.4 mm 2 mps 706 mmHg 84%

Tomorrow, 6 December, Sunday

Time Temperature Precipitation Wind Pressure Humidity
00:00 +24°C° 0.4 mm 2 mps 706 mmHg 87%
01:00 +24°C° 0.3 mm 1 mps 706 mmHg 89%
02:00 +24°C° 0.3 mm 1 mps 705 mmHg 90%
03:00 +23°C° 0.3 mm 1 mps 705 mmHg 92%
04:00 +23°C° 0 mm 1 mps 705 mmHg 92%
05:00 +23°C° 0 mm 1 mps 706 mmHg 92%
06:00 +23°C° 0 mm 1 mps 706 mmHg 92%
07:00 +25°C° 0.2 mm 1 mps 706 mmHg 86%
08:00 +26°C° 0.2 mm 2 mps 707 mmHg 81%
09:00 +27°C° 0.2 mm 2 mps 707 mmHg 76%
10:00 +28°C° 0.5 mm 2 mps 707 mmHg 72%
11:00 +29°C° 0.5 mm 2 mps 706 mmHg 68%
12:00 +30°C° 0.5 mm 3 mps 706 mmHg 65%
13:00 +31°C° 0.9 mm 2 mps 705 mmHg 64%
14:00 +31°C° 0.9 mm 2 mps 705 mmHg 63%
15:00 +31°C° 0.9 mm 2 mps 704 mmHg 63%
16:00 +30°C° 0.7 mm 2 mps 704 mmHg 68%
17:00 +28°C° 0.7 mm 2 mps 704 mmHg 73%
18:00 +27°C° 0.7 mm 2 mps 704 mmHg 79%
19:00 +26°C° 2.2 mm 3 mps 704 mmHg 83%
20:00 +25°C° 2.2 mm 3 mps 705 mmHg 88%
21:00 +24°C° 2.2 mm 3 mps 705 mmHg 92%
22:00 +24°C° 1.8 mm 2 mps 705 mmHg 93%
23:00 +24°C° 1.8 mm 2 mps 705 mmHg 94%

Day after tomorrow, 7 December, Monday

Time Temperature Precipitation Wind Pressure Humidity
00:00 +24°C° 1.8 mm 1 mps 705 mmHg 95%
01:00 +24°C° 1 mm 1 mps 705 mmHg 95%
02:00 +24°C° 1 mm 1 mps 704 mmHg 94%
03:00 +24°C° 1 mm 1 mps 704 mmHg 93%
04:00 +23°C° 3.4 mm 1 mps 704 mmHg 94%
05:00 +23°C° 3.4 mm 1 mps 705 mmHg 95%
06:00 +23°C° 3.4 mm 1 mps 705 mmHg 96%
07:00 +24°C° 1.8 mm 2 mps 705 mmHg 94%
08:00 +24°C° 1.8 mm 2 mps 706 mmHg 91%
09:00 +25°C° 1.8 mm 3 mps 706 mmHg 89%
10:00 +26°C° 1.6 mm 3 mps 706 mmHg 85%
11:00 +27°C° 1.6 mm 3 mps 706 mmHg 81%
12:00 +28°C° 1.6 mm 3 mps 706 mmHg 78%
13:00 +28°C° 2.4 mm 3 mps 705 mmHg 79%
14:00 +28°C° 2.4 mm 3 mps 705 mmHg 80%
15:00 +28°C° 2.4 mm 2 mps 704 mmHg 81%
16:00 +27°C° 1.6 mm 2 mps 704 mmHg 83%
17:00 +26°C° 1.6 mm 2 mps 704 mmHg 86%
18:00 +26°C° 1.6 mm 1 mps 704 mmHg 88%
19:00 +25°C° 0.7 mm 2 mps 704 mmHg 89%
20:00 +25°C° 0.7 mm 2 mps 705 mmHg 90%
21:00 +24°C° 0.7 mm 2 mps 705 mmHg 91%
22:00 +24°C° 0.8 mm 2 mps 705 mmHg 92%
23:00 +24°C° 0.8 mm 3 mps 705 mmHg 92%

8 December, Tuesday

Time Temperature Precipitation Wind Pressure Humidity
00:00 +22°C° 0.8 mm 3 mps 705 mmHg 93%
01:00 +22°C° 0.5 mm 3 mps 705 mmHg 93%
02:00 +22°C° 0.5 mm 3 mps 705 mmHg 93%
03:00 +22°C° 0.5 mm 3 mps 704 mmHg 93%
04:00 +23°C° 0.1 mm 2 mps 705 mmHg 93%
05:00 +23°C° 0.1 mm 2 mps 705 mmHg 93%
06:00 +23°C° 0.1 mm 1 mps 705 mmHg 93%
07:00 +24°C° 0.4 mm 2 mps 706 mmHg 91%
08:00 +24°C° 0.4 mm 2 mps 706 mmHg 89%
09:00 +25°C° 0.4 mm 2 mps 706 mmHg 87%
10:00 +26°C° 0.8 mm 2 mps 706 mmHg 84%
11:00 +27°C° 0.8 mm 2 mps 706 mmHg 80%
12:00 +28°C° 0.8 mm 2 mps 705 mmHg 76%
13:00 +28°C° 1.9 mm 2 mps 705 mmHg 75%
14:00 +28°C° 1.9 mm 2 mps 704 mmHg 74%
15:00 +29°C° 1.9 mm 1 mps 704 mmHg 73%
16:00 +27°C° 1.8 mm 1 mps 704 mmHg 80%
17:00 +25°C° 1.8 mm 1 mps 704 mmHg 87%
18:00 +24°C° 1.8 mm 1 mps 704 mmHg 94%
19:00 +24°C° 0.3 mm 1 mps 704 mmHg 94%
20:00 +23°C° 0.3 mm 1 mps 705 mmHg 94%
21:00 +23°C° 0.3 mm 2 mps 705 mmHg 94%
22:00 +23°C° 0.4 mm 2 mps 705 mmHg 94%
23:00 +23°C° 0.4 mm 2 mps 705 mmHg 94%

9 December, Wednesday

Time Temperature Precipitation Wind Pressure Humidity
00:00 +23°C° 0.4 mm 2 mps 705 mmHg 94%
01:00 +23°C° 0.4 mm 2 mps 705 mmHg 94%
02:00 +23°C° 0.4 mm 2 mps 704 mmHg 94%
03:00 +22°C° 0.4 mm 1 mps 704 mmHg 94%
04:00 +22°C° 0.1 mm 1 mps 704 mmHg 94%
05:00 +22°C° 0.1 mm 1 mps 705 mmHg 94%
06:00 +22°C° 0.1 mm 1 mps 705 mmHg 93%
07:00 +23°C° 0.1 mm 1 mps 705 mmHg 91%
08:00 +23°C° 0.1 mm 1 mps 706 mmHg 90%
09:00 +24°C° 0.1 mm 1 mps 706 mmHg 88%
10:00 +25°C° 0.3 mm 1 mps 706 mmHg 85%
11:00 +25°C° 0.3 mm 1 mps 706 mmHg 82%
12:00 +26°C° 0.3 mm 1 mps 705 mmHg 79%
13:00 +27°C° 0.3 mm 1 mps 705 mmHg 75%
14:00 +28°C° 0.3 mm 1 mps 705 mmHg 70%
15:00 +29°C° 0.3 mm 1 mps 704 mmHg 65%
16:00 +28°C° 0 mm 1 mps 704 mmHg 70%
17:00 +27°C° 0 mm 2 mps 704 mmHg 76%
18:00 +26°C° 0 mm 2 mps 704 mmHg 81%
19:00 +25°C° 0.7 mm 2 mps 704 mmHg 85%
20:00 +24°C° 0.7 mm 2 mps 704 mmHg 88%
21:00 +22°C° 0.7 mm 1 mps 705 mmHg 92%
22:00 +22°C° 1 mm 1 mps 705 mmHg 92%
23:00 +22°C° 1 mm 1 mps 705 mmHg 93%

10 December, Thursday

Time Temperature Precipitation Wind Pressure Humidity
00:00 +22°C° 1 mm 1 mps 705 mmHg 93%
01:00 +22°C° 0.8 mm 1 mps 704 mmHg 94%
02:00 +22°C° 0.8 mm 1 mps 704 mmHg 94%
03:00 +22°C° 0.8 mm 1 mps 704 mmHg 95%
04:00 +22°C° 0.9 mm 1 mps 704 mmHg 95%
05:00 +22°C° 0.9 mm 1 mps 704 mmHg 95%
06:00 +21°C° 0.9 mm 2 mps 704 mmHg 95%
07:00 +23°C° 1.1 mm 2 mps 705 mmHg 94%
08:00 +22°C° 1.1 mm 3 mps 705 mmHg 93%
09:00 +22°C° 1.1 mm 3 mps 706 mmHg 92%
10:00 +22°C° 1.9 mm 3 mps 705 mmHg 91%
11:00 +24°C° 1.9 mm 3 mps 705 mmHg 91%
12:00 +24°C° 1.9 mm 3 mps 705 mmHg 91%
13:00 +23°C° 0.5 mm 4 mps 704 mmHg 90%
14:00 +23°C° 0.5 mm 4 mps 704 mmHg 89%
15:00 +23°C° 0.5 mm 4 mps 704 mmHg 88%
16:00 +22°C° 0.2 mm 3 mps 704 mmHg 89%
17:00 +23°C° 0.2 mm 2 mps 704 mmHg 90%
18:00 +22°C° 0.2 mm 1 mps 703 mmHg 91%
19:00 +21°C° 0 mm 2 mps 704 mmHg 92%
20:00 +21°C° 0 mm 2 mps 704 mmHg 93%
21:00 +20°C° 0 mm 2 mps 705 mmHg 93%
22:00 +20°C° 0.1 mm 2 mps 705 mmHg 94%
23:00 +21°C° 0.1 mm 2 mps 705 mmHg 94%
Show more